GW3157 Weather Reports


Display with metric or nautical units.
time (UTC)temp
F
wind
direction
speed
MPH
gust
MPH
rain 1hr
in
rain 24hr
in
rain mn
in
humidity
%
barometer
mb
20260507202502 62 180 14.0 20.0 0.01 1.54 1.53 100 999.3
20260507202002 61 207 13.0 20.0 0.01 1.54 1.53 100 999.2
20260507201502 61 329 12.0 20.0 0.01 1.54 1.53 100 999.4
20260507201003 62 266 12.0 20.0 0.01 1.54 1.53 100 999.6
20260507200504 61 175 10.0 20.0 0.01 1.54 1.53 100 999.5
20260507200007 61 242 9.0 14.0 0.00 1.53 1.52 100 999.4
20260507195503 61 338 7.0 13.0 0.00 1.53 1.52 100 999.4
20260507195003 61 260 5.0 12.0 0.00 1.53 1.52 100 999.4
20260507194502 61 345 5.0 9.0 0.00 1.53 1.52 100 998.9
20260507194004 61 339 4.0 8.0 0.00 1.53 1.52 100 999.1
20260507193501 61 340 4.0 9.0 0.00 1.53 1.52 100 998.7
20260507193006 61 343 4.0 9.0 0.00 1.53 1.52 100 998.6
20260507192502 61 338 4.0 8.0 0.00 1.53 1.52 100 998.5
20260507192005 61 343 5.0 9.0 0.00 1.53 1.52 100 998.6
20260507191502 61 345 5.0 9.0 0.00 1.53 1.52 100 998.8
20260507191002 61 329 6.0 10.0 0.00 1.53 1.52 100 998.9
20260507190501 61 336 7.0 10.0 0.00 1.53 1.52 100 999.0
20260507190008 61 343 6.0 10.0 0.00 1.53 1.52 100 999.0
20260507185004 61 334 5.0 8.0 0.00 1.53 1.52 100 999.0
20260507184504 61 331 5.0 8.0 0.00 1.53 1.52 100 998.7
20260507183502 62 336 4.0 7.0 0.00 1.53 1.52 100 998.3
20260507181501 62 331 5.0 8.0 0.02 1.53 1.52 100 999.2
20260507181004 62 308 5.0 8.0 0.02 1.53 1.52 100 999.2
20260507180503 62 338 4.0 6.0 0.02 1.53 1.52 100 999.2
20260507180006 62 338 4.0 6.0 0.02 1.53 1.52 100 999.3
20260507175501 62 332 4.0 6.0 0.02 1.53 1.52 100 999.2
20260507175004 62 229 4.0 6.0 0.03 1.53 1.52 100 999.0
20260507174501 62 341 4.0 7.0 0.03 1.53 1.52 100 999.0
20260507174002 62 335 4.0 7.0 0.04 1.53 1.52 100 999.4
20260507173502 62 333 6.0 11.0 0.04 1.53 1.52 100 999.1
20260507173006 62 336 7.0 11.0 0.05 1.53 1.52 100 999.6
20260507172501 62 329 6.0 11.0 0.04 1.52 1.51 100 1000.0
20260507172003 62 336 4.0 9.0 0.04 1.51 1.50 100 1000.0
20260507171003 62 329 4.0 10.0 0.06 1.51 1.50 100 999.7
20260507170501 62 324 2.0 7.0 0.06 1.50 1.50 100 999.3
20260507165501 62 337 5.0 7.0 0.09 1.50 1.50 100 999.8
20260507165002 62 334 5.0 7.0 0.09 1.50 1.49 100 1000.0
20260507164502 61 336 5.0 7.0 0.09 1.50 1.49 100 1000.1
20260507164003 61 336 5.0 8.0 0.10 1.49 1.48 100 1000.0
20260507163503 61 317 5.0 8.0 0.12 1.49 1.48 100 1000.2
20260507163004 61 336 4.0 8.0 0.12 1.48 1.47 100 999.8
20260507162502 61 338 4.0 7.0 0.14 1.48 1.47 100 999.8
20260507162002 61 337 3.0 7.0 0.15 1.47 1.46 100 1000.0
20260507161502 61 341 2.0 5.0 0.15 1.46 1.46 99 999.7
20260507161002 61 343 4.0 9.0 0.15 1.46 1.45 100 999.6
20260507160503 61 331 6.0 9.0 0.15 1.45 1.44 99 1000.1
20260507155500 61 324 11.0 18.0 0.17 1.42 1.41 99 1001.2
20260507155001 61 329 12.0 19.0 0.17 1.41 1.40 99 1001.2
20260507154500 61 328 11.0 19.0 0.18 1.40 1.39 99 1001.4
20260507154003 61 316 10.0 16.0 0.17 1.39 1.38 99 1000.8
20260507153501 61 333 10.0 16.0 0.17 1.37 1.36 99 1000.7
20260507153003 61 335 11.0 16.0 0.16 1.35 1.35 99 1000.6
20260507152502 61 331 12.0 17.0 0.15 1.34 1.33 99 1001.0
20260507152004 61 338 14.0 22.0 0.14 1.32 1.31 99 1000.9
20260507151501 61 335 14.0 22.0 0.14 1.31 1.31 99 1001.0
20260507151003 61 338 13.0 22.0 0.13 1.31 1.30 99 1001.1
20260507150501 62 334 13.0 21.0 0.13 1.29 1.28 99 1001.1
20260507150009 61 275 14.0 22.0 0.12 1.28 1.27 99 1001.2
20260507145502 61 294 14.0 22.0 0.09 1.25 1.24 99 1001.7
20260507145003 61 329 15.0 24.0 0.08 1.24 1.23 99 1001.4
20260507144501 61 174 16.0 24.0 0.07 1.22 1.21 99 1001.3
20260507144003 61 334 18.0 27.0 0.06 1.21 1.20 99 1001.4
20260507143502 61 329 22.0 28.0 0.06 1.20 1.20 99 1001.5
20260507143003 61 163 22.0 30.0 0.05 1.20 1.19 99 1001.8
20260507142502 61 168 21.0 35.0 0.05 1.19 1.18 99 1002.0
20260507142003 61 183 18.0 35.0 0.04 1.18 1.17 99 1002.1
20260507141502 62 295 16.0 30.0 0.03 1.17 1.17 99 1002.1
20260507141003 62 320 15.0 26.0 0.03 1.17 1.17 99 1002.1
20260507140501 62 335 15.0 23.0 0.02 1.17 1.16 100 1001.4
20260507140007 62 337 15.0 24.0 0.02 1.16 1.15 100 1000.9
20260507135502 62 336 14.0 24.0 0.02 1.16 1.15 100 1000.6
20260507135002 62 338 11.0 21.0 0.02 1.16 1.15 99 1000.4
20260507134501 62 335 10.0 15.0 0.01 1.15 1.14 99 1000.3
20260507133502 62 336 9.0 16.0 0.02 1.15 1.14 99 1000.0
20260507133003 61 346 9.0 16.0 0.02 1.15 1.14 99 1000.2
20260507132501 61 341 10.0 16.0 0.01 1.14 1.13 99 1000.2
20260507132002 61 329 10.0 19.0 0.02 1.14 1.13 99 999.8
20260507131502 61 347 10.0 19.0 0.02 1.14 1.13 99 999.6
20260507131003 61 346 11.0 18.0 0.02 1.14 1.13 99 999.6
20260507130502 61 348 10.0 18.0 0.02 1.14 1.13 99 999.5
20260507130005 61 341 8.0 16.0 0.02 1.14 1.13 99 999.5
20260507125003 61 359 6.0 14.0 0.03 1.14 1.13 99 999.2
20260507124502 61 2 7.0 16.0 0.04 1.14 1.13 99 998.3
20260507124002 61 14 9.0 16.0 0.04 1.14 1.13 99 997.7
20260507123502 61 348 10.0 18.0 0.04 1.13 1.13 99 998.2
20260507122502 60 354 9.0 18.0 0.05 1.13 1.13 99 997.7
20260507122003 60 348 9.0 18.0 0.05 1.13 1.12 99 998.1
20260507121501 60 342 10.0 18.0 0.06 1.13 1.12 99 998.1
20260507121007 60 343 10.0 18.0 0.06 1.12 1.11 99 998.6
20260507120502 60 2 10.0 20.0 0.07 1.12 1.11 99 998.6
20260507120006 60 22 9.0 20.0 0.08 1.12 1.11 99 998.6
20260507115501 60 21 10.0 17.0 0.09 1.12 1.11 99 998.4
20260507115003 60 349 11.0 19.0 0.09 1.11 1.10 99 998.6
20260507114502 60 8 10.0 19.0 0.11 1.10 1.09 99 998.2
20260507114001 60 28 9.0 16.0 0.13 1.09 1.09 99 999.4
20260507113500 60 355 8.0 16.0 0.16 1.09 1.09 99 999.3
20260507113001 60 357 8.0 15.0 0.16 1.09 1.08 99 999.3
20260507112500 60 28 8.0 14.0 0.16 1.08 1.07 99 999.1
20260507112002 60 351 8.0 14.0 0.17 1.08 1.07 99 999.3
20260507111502 60 347 7.0 14.0 0.19 1.07 1.06 99 999.4
20260507111001 60 351 7.0 14.0 0.19 1.06 1.05 99 999.7
20260507110500 60 359 6.0 13.0 0.19 1.05 1.04 99 999.6
20260507110005 61 8 5.0 10.0 0.18 1.04 1.03 99 1000.0
20260507105500 61 343 6.0 11.0 0.17 1.02 1.02 99 1000.7
20260507105001 61 357 5.0 10.0 0.17 1.02 1.01 99 1000.9
20260507104500 61 344 4.0 8.0 0.13 0.98 0.98 99 1001.4
20260507102500 61 141 4.0 7.0 0.11 0.92 0.91 99 1000.1
20260507102002 61 159 4.0 8.0 0.10 0.91 0.90 99 999.5
20260507101501 61 101 4.0 7.0 0.09 0.88 0.87 99 999.1
20260507101002 61 156 4.0 9.0 0.08 0.87 0.86 99 999.5
20260507100500 61 161 4.0 9.0 0.08 0.86 0.85 99 1000.0
20260507100012 61 169 5.0 9.0 0.09 0.86 0.85 99 999.9
20260507095500 61 161 8.0 13.0 0.10 0.86 0.85 99 999.9
20260507095001 61 168 9.0 14.0 0.10 0.85 0.84 99 1000.3
20260507094500 61 174 9.0 15.0 0.10 0.85 0.84 99 1000.6
20260507094002 61 168 10.0 17.0 0.11 0.84 0.83 99 1001.0
20260507093500 62 171 12.0 19.0 0.10 0.83 0.83 99 1001.2
20260507092500 62 168 12.0 17.0 0.09 0.81 0.80 99 1001.8
20260507091500 62 175 14.0 20.0 0.07 0.80 0.79 99 1002.5
20260507091002 63 180 13.0 20.0 0.06 0.79 0.78 99 1002.8
20260507090500 63 331 11.0 19.0 0.06 0.78 0.77 99 1002.8
20260507085500 63 166 11.0 19.0 0.03 0.76 0.75 99 1002.8
20260507085001 63 331 11.0 19.0 0.02 0.75 0.74 99 1002.7
20260507084500 63 270 10.0 19.0 0.03 0.75 0.74 99 1002.6
20260507083459 64 172 10.0 20.0 0.02 0.73 0.72 99 1002.3
20260507083000 64 168 12.0 18.0 0.04 0.72 0.72 99 1002.2
20260507082500 63 177 13.0 18.0 0.09 0.72 0.72 99 1002.1
20260507082000 63 238 11.0 18.0 0.20 0.72 0.72 99 1002.1
20260507081459 63 333 8.0 18.0 0.40 0.72 0.72 99 1001.8
20260507080459 63 276 12.0 18.0 0.64 0.72 0.72 98 1001.3
20260507080005 63 329 12.0 20.0 0.65 0.72 0.72 98 1001.3
20260507075459 63 270 10.0 20.0 0.66 0.72 0.72 98 1001.3
20260507075000 63 279 11.0 19.0 0.66 0.72 0.72 98 1001.0
20260507074459 63 198 13.0 22.0 0.65 0.72 0.71 98 1001.1
20260507074000 64 220 14.0 22.0 0.70 0.72 0.71 98 1001.8
20260507073459 63 217 19.0 26.0 0.70 0.71 0.70 98 1000.8
20260507073000 64 176 25.0 36.0 0.68 0.69 0.68 98 1001.2
20260507072459 64 168 29.0 37.0 0.63 0.64 0.63 98 1001.8
20260507072000 64 170 26.0 35.0 0.51 0.52 0.51 97 1001.6
20260507071459 64 175 18.0 34.0 0.31 0.32 0.31 97 1001.5
20260507071000 64 169 14.0 24.0 0.16 0.17 0.16 97 1001.2
20260507070459 64 170 14.0 21.0 0.08 0.09 0.08 97 1000.5
20260507070008 64 171 14.0 24.0 0.06 0.07 0.06 96 1000.8
20260507065459 64 177 16.0 26.0 0.06 0.06 0.06 96 1000.7
20260507065000 65 181 18.0 31.0 0.06 0.06 0.06 94 1000.8
20260507064500 66 170 18.0 31.0 0.06 0.06 0.06 92 1000.5
20260507064000 68 169 19.0 34.0 0.01 0.02 0.01 88 1000.7
20260507063459 70 172 16.0 34.0 0.00 0.01 0.00 84 1001.2
20260507063001 74 176 9.0 31.0 0.00 0.01 0.00 85 1001.0
20260507062001 74 341 11.0 16.0 0.00 0.01 0.00 86 999.6
20260507061459 74 337 11.0 16.0 0.00 0.01 0.00 85 999.9
20260507061000 75 339 11.0 17.0 0.00 0.01 0.00 84 999.7
20260507060500 76 321 12.0 18.0 0.00 0.01 0.00 84 999.7
20260507055459 75 342 11.0 20.0 0.00 0.01 0.00 85 999.8
20260507055000 75 336 10.0 18.0 0.00 0.01 0.00 85 999.9
20260507054459 75 334 10.0 18.0 0.00 0.01 0.00 86 999.9
20260507054000 74 348 10.0 19.0 0.00 0.01 0.00 86 1000.1
20260507053500 74 339 9.0 19.0 0.00 0.01 0.00 87 1000.3
20260507053000 73 339 8.0 15.0 0.00 0.01 0.00 88 1000.4
20260507052500 73 342 7.0 14.0 0.00 0.01 0.00 90 1000.7
20260507052000 72 340 6.0 12.0 0.00 0.01 0.00 90 1000.7
20260507051459 72 348 6.0 10.0 0.00 0.01 0.00 90 1000.8
20260507051001 73 338 6.0 12.0 0.00 0.01 0.00 90 1000.9
20260507045459 73 351 7.0 13.0 0.00 0.01 0.00 90 1001.1
20260507045000 72 339 7.0 14.0 0.00 0.01 0.00 90 1001.2
20260507044500 72 350 8.0 14.0 0.00 0.01 0.00 91 1001.2
20260507044000 72 336 7.0 14.0 0.00 0.01 0.00 92 1001.4
20260507043459 72 341 7.0 14.0 0.00 0.01 0.00 92 1001.4
20260507043000 72 344 7.0 14.0 0.00 0.01 0.00 92 1001.6
20260507042459 71 342 7.0 13.0 0.00 0.01 0.00 93 1001.7
20260507041459 71 345 6.0 11.0 0.00 0.01 0.00 93 1001.6
20260507041000 71 344 5.0 11.0 0.00 0.01 0.00 93 1001.8
20260507040005 71 357 5.0 10.0 0.00 0.01 0.00 93 1001.9
20260507035459 71 344 6.0 12.0 0.00 0.01 0.00 93 1001.9
20260507035000 71 351 6.0 12.0 0.00 0.01 0.00 93 1002.0
20260507033500 71 348 5.0 10.0 0.00 0.01 0.00 93 1002.1
20260507033000 71 345 6.0 10.0 0.00 0.01 0.00 93 1002.2
20260507032002 71 358 6.0 11.0 0.00 0.01 0.00 92 1002.2
20260507031459 71 345 7.0 13.0 0.00 0.01 0.00 92 1002.3
20260507031000 71 338 7.0 13.0 0.00 0.01 0.00 92 1002.3
20260507030459 71 342 7.0 17.0 0.00 0.01 0.00 92 1002.2
20260507030011 72 337 7.0 17.0 0.00 0.01 0.00 92 1002.2
20260507025501 72 342 7.0 15.0 0.00 0.01 0.01 92 1002.1
20260507025003 72 354 7.0 13.0 0.00 0.01 0.01 92 1002.1
20260507024501 72 345 7.0 14.0 0.00 0.01 0.01 92 1002.1
20260507024002 72 343 7.0 14.0 0.00 0.01 0.01 92 1002.0
20260507023501 72 348 8.0 16.0 0.00 0.01 0.01 92 1001.8
20260507023002 72 360 8.0 16.0 0.00 0.01 0.01 92 1001.6
20260507022502 72 353 9.0 20.0 0.00 0.01 0.01 92 1001.6
20260507021003 72 355 8.0 16.0 0.00 0.01 0.01 92 1001.7
20260507020500 72 349 9.0 16.0 0.00 0.01 0.01 92 1001.9
20260507020007 72 358 9.0 21.0 0.00 0.01 0.01 91 1002.0
20260507015502 72 3 8.0 19.0 0.00 0.01 0.01 92 1002.1
20260507015004 72 11 7.0 18.0 0.00 0.01 0.01 92 1002.2
20260507014502 72 357 7.0 15.0 0.00 0.01 0.01 92 1002.1
20260507014005 72 348 8.0 16.0 0.01 0.01 0.01 92 1002.2
20260507013502 72 349 9.0 18.0 0.01 0.01 0.01 92 1002.2
20260507012503 72 345 10.0 21.0 0.01 0.01 0.01 92 1002.2
20260507012003 72 354 10.0 21.0 0.01 0.01 0.01 92 1002.5
20260507011501 72 350 11.0 23.0 0.01 0.01 0.01 92 1002.3
20260507010501 72 23 10.0 21.0 0.01 0.01 0.01 92 1002.5
20260507010010 72 345 10.0 23.0 0.01 0.01 0.01 92 1002.8
20260507005502 72 345 10.0 23.0 0.01 0.01 0.01 92 1002.8
20260507005001 72 348 11.0 19.0 0.01 0.01 0.01 92 1003.5
20260507004501 72 348 10.0 17.0 0.01 0.01 0.01 92 1004.0
20260507004002 72 347 9.0 16.0 0.00 0.00 0.00 92 1004.6
20260507003501 72 345 8.0 19.0 0.00 0.00 0.00 92 1004.5
20260507003002 72 354 9.0 19.0 0.00 0.00 0.00 92 1004.7
20260507002002 72 350 8.0 17.0 0.00 0.00 0.00 93 1004.9
20260507001501 72 353 7.0 14.0 0.00 0.00 0.00 92 1005.2
20260507001003 72 349 7.0 14.0 0.00 0.00 0.00 93 1005.6
20260507000501 72 350 6.0 12.0 0.00 0.00 0.00 93 1005.9
20260506235500 72 17 5.0 11.0 0.00 0.00 0.00 93 1006.3
20260506235000 72 29 5.0 10.0 0.00 0.00 0.00 93 1006.5
20260506234002 71 7 6.0 13.0 0.00 0.00 0.00 93 1006.8
20260506233002 71 354 6.0 12.0 0.00 0.00 0.00 93 1006.9
20260506232459 71 353 7.0 12.0 0.00 0.00 0.00 93 1007.0
20260506232002 71 353 7.0 14.0 0.00 0.00 0.00 93 1007.0
20260506231501 71 353 7.0 14.0 0.00 0.00 0.00 93 1007.2
20260506231002 71 348 7.0 16.0 0.00 0.00 0.00 94 1007.3
20260506230501 71 9 8.0 16.0 0.00 0.00 0.00 94 1007.4
20260506230006 71 352 7.0 15.0 0.00 0.00 0.00 94 1007.4
20260506225501 71 357 7.0 14.0 0.00 0.00 0.00 94 1007.7
20260506225003 71 346 7.0 14.0 0.00 0.00 0.00 95 1007.7
20260506224501 71 351 6.0 13.0 0.00 0.00 0.00 95 1007.8
20260506224023 71 353 6.0 12.0 0.00 0.00 0.00 96 1007.8
20260506223501 70 347 6.0 12.0 0.00 0.00 0.00 96 1007.8
20260506223004 70 348 6.0 12.0 0.00 0.00 0.00 97 1007.9
20260506222500 70 360 6.0 12.0 0.00 0.00 0.00 97 1008.0
20260506222003 70 360 5.0 17.0 0.00 0.00 0.00 98 1007.9
20260506221500 69 85 6.0 17.0 0.00 0.00 0.00 98 1007.8
20260506221001 66 359 6.0 9.0 0.00 0.00 0.00 98 1007.9
20260506220501 66 107 7.0 12.0 0.00 0.00 0.00 97 1007.8
20260506220006 65 24 8.0 14.0 0.00 0.00 0.00 97 1007.9
20260506215002 65 134 8.0 12.0 0.00 0.00 0.00 97 1007.9
20260506214501 65 1 9.0 12.0 0.00 0.00 0.00 97 1008.0
20260506214001 65 113 9.0 14.0 0.00 0.00 0.00 97 1008.0
20260506213502 65 26 10.0 14.0 0.00 0.00 0.00 97 1008.0
20260506213002 65 12 10.0 14.0 0.00 0.00 0.00 97 1008.0
20260506212500 65 27 9.0 14.0 0.00 0.00 0.00 97 1008.0
20260506212003 65 19 9.0 13.0 0.00 0.00 0.00 97 1008.0
20260506211001 65 357 10.0 16.0 0.00 0.00 0.00 96 1008.1
20260506210006 65 2 11.0 17.0 0.00 0.00 0.00 96 1008.2
20260506205501 65 3 10.0 17.0 0.00 0.00 0.00 96 1008.1
20260506205001 65 7 10.0 17.0 0.00 0.00 0.00 96 1008.2
20260506204502 65 18 10.0 17.0 0.00 0.00 0.00 97 1008.2
20260506204001 65 21 11.0 17.0 0.00 0.00 0.00 97 1008.4
20260506203500 65 350 12.0 18.0 0.00 0.00 0.00 97 1008.3
20260506203002 65 357 13.0 22.0 0.00 0.00 0.00 97 1008.5